www.pogodaiklimat.ru

Погода и климат >> Архив погоды >> Россия >> Калмыкия >> Юста


ПОГОДА в Юсте

  • Прогноз погоды в Юсте
  • Монитор погоды в Юсте
  • Климат города

АРХИВ ПОГОДЫ в Юсте

Время (UTC), дата Ветер
(напр.,м/с)
 
Видим.   Явления Облачность Т
(С)
Тd
(С)
f
(%)
Тe
(С)
Тes
(С)
Комфортность P
(гПа)
Po
(гПа)
Тmin
(С)
Tmax
(С)
R
(мм)
R24
(мм)
S
(см)
21 18.04 ЮВ 4 10 км 8/8 600 м
[Sc]
+12.3 +10.5 89 +10 +10 1011.1 1010.7
00 19.04 ЮВ 2 10 км ясно +10.8 +10.0 95 +9 +9 1009.6 1009.2
03 19.04 ЮВ 2 500 м туман ?/? +10.0 +10.0 100 +8 +8 1009.3 1009.0 +9.3
06 19.04 ЮЗ 2 20 км {туман} 9/9 300 м
[Sc]
+12.8 +12.2 96 +12 +13 1010.3 1009.9
09 19.04 З 5 20 км 9/9 600 м
[Sc]
+15.4 +10.3 72 +14 +15 1010.8 1010.4
12 19.04 СЗ 7-13
{14}
4000 м слабый дождь {метель} 10/0
[As op]
+13.8 +6.5 61 +12 +12 1012.9 1012.5
15 19.04 СЗ 3
{13}
20 км в посл. час дождь 9/9 300 м
[Sc]
+9.9 +8.3 90 +8 +8 1013.6 1013.2 +16.8 1
18 19.04 З 3 10 км {дождь} 3/0
[Ac trans]
+8.2 +7.4 95 +5 +5 1015.5 1015.1
21 19.04 З 6
{10}
10 км ясно +5.7 +1.9 77 +1 +1 1016.1 1015.8
00 20.04 З 5 10 км 9/9 300 м
[Sc]
+6.0 +3.5 84 +2 +2 1016.3 1015.9
03 20.04 З 6 20 км 9/8 300 м
[Sc Ac trans]
+7.0 +4.2 82 +3 +3 1017.2 1016.8 +4.8
06 20.04 СЗ 7-11
{14}
20 км 9/9 300 м
[Sc]
+5.9 +2.4 78 +1 +1 1019.0 1018.6
09 20.04 З 7-10
{11}
20 км 8/8 600 м
[Sc]
+9.4 +1.9 59 +6 +7 1019.8 1019.4
12 20.04 СЗ 5
{11}
20 км ясно +11.6 +1.0 48 +9 +14 1019.3 1018.9
15 20.04 С 5 20 км 3/0
[Ci fib]
+10.6 -0.7 45 +8 +8 1020.2 1019.8 +11.6
18 20.04 СВ 2 10 км ясно +4.1 +0.1 75 +2 +2 1021.4 1021.0
21 20.04 СВ 2 10 км ясно +1.2 -1.2 84 -2 -2 1021.7 1021.3
00 21.04 СВ 4 10 км ясно +0.6 -1.5 86 -5 -5 1020.7 1020.3
03 21.04 В 6 20 км 4/0
[Cs]
+1.1 -1.4 83 -5 -5 1020.8 1020.5 -0.1
06 21.04 В 6
{12}
20 км 9/0
[Cs]
+7.1 -0.9 57 +3 +6 1020.2 1019.8
09 21.04 В 6
{12}
20 км 8/0
[Cs]
+10.9 -0.3 46 +8 +13 1018.7 1018.3
12 21.04 В 6 20 км 9/0
[Ac As]
+12.9 +2.2 48 +11 +12 1016.5 1016.1
15 21.04 В 4 20 км 9/0
[Ac As]
+13.0 +4.1 55 +11 +12 1013.7 1013.4 +13.3
18 21.04 Ю 4 10 км 9/9 300 м
[Sc]
+11.1 +6.0 71 +9 +9 1012.9 1012.5
21 21.04 ЮВ 4 10 км 9/9 300 м
[Sc]
+9.7 +6.7 82 +7 +7 1011.6 1011.2
00 22.04 ЮЗ 3 4000 м слабый дождь 10/10 300 м
[Cu med, cong]
+8.7 +7.5 92 +6 +6 1010.9 1010.5
03 22.04 СЗ 2
{17}
4000 м слабый дождь 10/10 300 м
[Cu med, cong]
+4.4 +3.8 96 +1 +1 1010.3 1010.0 +4.4 6
06 22.04 ЮЗ 5 20 км {дождь} 9/4 300 м
[Sc Ci sp]
+6.4 +4.4 87 +2 +5 1010.7 1010.4
09 22.04 З 10-16
{22}
4000 м слабый ливневой дождь 9/9 300 м
[Cb calv]
+6.9 +4.0 82 +1 +1 1009.8 1009.5
12 22.04 З 12-21
{23}
20 км в посл. час ливневой дождь 8/8 600 м
[Cb calv]
+8.9 +5.3 78 +4 +4 1009.4 1009.1
15 22.04 З 9-14
{22}
20 км 8/6 600 м
[Cb calv Ac cuf]
+9.3 +3.3 66 +5 +5 1012.7 1012.3 +11.9 2
18 22.04 З 6
{16}
10 км ясно +6.5 +2.6 76 +2 +2 1016.0 1015.6
21 22.04 ЮЗ 4 10 км ясно +3.9 +2.0 87 -1 -1 1016.2 1015.8
00 23.04 ЮЗ 4 10 км ясно +3.8 +2.6 92 -1 -1 1016.2 1015.9
03 23.04 ЮЗ 3 20 км 5/0
[Ci sp]
+4.5 +3.2 91 +1 +1 1016.5 1016.2 +3.5
06 23.04 Ю 3 20 км 10/0
[As op]
+10.1 +4.0 66 +8 +10 1016.1 1015.8
09 23.04 ЮВ 4 20 км 10/0
[As op]
+12.3 +2.2 50 +11 +13 1013.9 1013.5
12 23.04 В 6 20 км 9/9 600 м
[Sc]
+13.5 +2.8 48 +12 +12 1009.2 1008.9
15 23.04 В 7-13
{14}
20 км 9/0
[As trans]
+12.1 +4.1 58 +9 +9 1004.3 1004.0 +14.2
18 23.04 В 6-10
{13}
10 км 4/0
[Ci fib]
+10.2 +5.0 70 +7 +7 1001.9 1001.5
21 23.04 В 1
{11}
10 км 9/9 300 м
[Sc]
+9.4 +6.5 82 +9 +9 1001.4 1001.1
00 24.04 З 5 10 км {ливн. осадки} 6/0
[Ac cuf]
+8.8 +7.4 91 +5 +5 1001.7 1001.4
03 24.04 З 9-14
{19}
20 км ясно +6.2 +1.7 73 +1 +1 1002.7 1002.3 +6.2 0.3
06 24.04 З 15-22
{23}
20 км 8/8 600 м
[Sc]
+9.4 +2.5 62 +4 +4 1003.1 1002.7
09 24.04 З 14-20
{24}
20 км 8/8 1000 м
[Cu hum]
+10.7 +3.1 59 +6 +6 1005.7 1005.4
12 24.04 З 12-18
{20}
20 км 8/8 1000 м
[Cu med, cong]
+11.4 +3.2 57 +7 +7 1008.5 1009.0
15 24.04 З 7
{13}
20 км 3/3 1000 м
[Cu hum]
+13.5 +1.8 45 +11 +11 1011.5 1011.1 +14.0
18 24.04 З 3 10 км 3/0
[Ac cuf]
+7.8 +4.1 77 +5 +5 1014.5 1014.2
21 24.04 З 7
{13}
10 км 8/0
[Ac cuf]
+8.5 +1.5 61 +5 +5 1017.1 1016.7
00 25.04 ЮЗ 7-10
{12}
н/о н/о +7.6 +2.1 68 +3 +3 1017.1 1016.7
03 25.04 ЮЗ 7-13
{14}
20 км 9/9 300 м
[Sc]
+7.0 +1.9 70 +2 +2 1018.4 1018.1 +7.0
06 25.04 ЮЗ 9-14
{14}
20 км 8/8 600 м
[Sc]
+8.4 +2.8 68 +4 +4 1020.4 1020.0
09 25.04 З 9-13
{17}
20 км 8/6 600 м
[Cb calv Ac cuf]
+10.4 +3.1 61 +7 +7 1022.3 1022.0
12 25.04 З 5
{14}
20 км {ливн. осадки} 8/6 600 м
[Cb calv Ac cuf]
+12.4 +0.3 43 +10 +12 1022.9 1022.6
15 25.04 СЗ 2
{10}
20 км 8/0
[Ac und]
+11.8 +0.1 44 +11 +11 1024.8 1024.4 +13.6
18 25.04 З 4
{12}
10 км ясно +5.9 +1.6 74 +2 +2 1027.9 1027.5

 

Местоположение метеостанции Юста (Калмыкия, Россия): широта 47.13 долгота 46.32 высота над уровнем моря 3 м.

В архиве по умолчанию представлена погода в Юсте за последнюю неделю. Архивные данные за месяц целиком и за предыдущие месяцы, начиная с января 2011 года, Вы можете получить, выбрав интересующий диапазон дат из раскрывающегося списка и нажав кнопку "Ввод!".

Внимание! Время в таблицах - всемирное. Для получения местного времени необходимо прибавить поправку, которая в Юсте равна 3 ч.

Смотрите также архив погоды в соседних городах и на ближайших метеорологических станциях:

Погода в Харабали (Астраханская область, Россия) (76 км)
Погода в Утте (Калмыкия, Россия) (88 км)
Погода в Черный Яр (Астраханская область, Россия) (106 км)
Погода в Досанге (Астраханская область, Россия) (124 км)
Погода в Верхнем Баскунчаке (Астраханская область, Россия) (125 км)
Погода в Яшкуле (Калмыкия, Россия) (129 км)
Погода в Кетченерах (Калмыкия, Россия) (134 км)
Погода в Малых Дербетах (Калмыкия, Россия) (151 км)
Погода в Астрахани (Астраханская область, Россия) (158 км)
Погода в Лимане (Астраханская область, Россия) (163 км)

Пояснения к столбцам:

Ветер - указаны скорость ветра в м/с - средняя за 10 мин, порывы в срок и между сроками (в фигурных скобках) и направление, откуда дует ветер: С - северный, СВ - северо-восточный, В - восточный, ЮВ - юго-восточный, Ю - южный, ЮЗ - юго-западный, З - западный, СЗ - северо-западный.
Видимость - горизонтальная дальность видимости в метрах или километрах. При видимости от 1 до 10 км при отсутствии осадков обычно наблюдается дымка, при ухудшении видимости до 1 км и менее - туман. В сухую погоду видимость может ухудшаться дымом, пылью или мглою.
Явления - указаны атмосферные явления, наблюдавшиеся в срок или в последний час перед сроком; фигурными скобками обозначены явления, наблюдавшиеся между сроками (за 1-3 часа до срока); квадратными скобками обозначены град или гололедные отложения с указанием их диаметра в мм.
Облачность - указаны через наклонную черту общая и нижняя облачность в баллах и высота нижней границы облаков в метрах; квадратными скобками обозначены формы облаков: Ci - перистые, Cs - перисто-слоистые, Cc - перисто-кучевые, Ac - высококучевые, As - высокослоистые, Sc - слоисто-кучевые, Ns - слоисто-дождевые, Cu - кучевые, Cb - кучево-дождевые. Подробнее классификацию облаков см. в Атласе облаков (PDF).
T - Температура воздуха - температура, измеренная на высоте 2 м над землей.
Td - Температура точки росы - температура, при понижении до которой содержащийся в воздухе водяной пар достигнет насыщения.
f - Относительная влажность воздуха - влажноcть воздуха, измеренная на высоте 2 м над землей.
Te - Эффективная температура - температура, которую ощущает одетый по сезону человек в тени. Характеристика душности погоды. При расчете учитывается влияние влажности воздуха и скорости ветра на теплоощущения человека.
Tes - Эффективная температура на солнце - температура, которую ощущает человек, с поправкой на солнечный нагрев. Характеристика знойности погоды. Зависит от высоты солнца над горизонтом, облачности и скорости ветра. Ночью, в пасмурную погоду, а также при ветре 12 м/с и более поправка равна нулю.
P - Атмосферное давление - приведенное к уровню моря атмосферное давление.
Po - Атмосферное давление - измеренное на уровне метеостанции атмосферное давление.
Tmin - Минимальная температура - минимум температуры воздуха на высоте 2 м над землей.
Tmax - Максимальная температура - максимум температуры воздуха на высоте 2 м над землей.
R - Количество осадков - Количество выпавших осадков за период времени, мм. При наведении курсора мыши на число - период времени, за который выпало указанное количество осадков.
R24 - Количество осадков - Количество выпавших осадков за 24 часа, мм.
S - Снежный покров - Высота снежного покрова, см. При наведении курсора мыши на число - состояние снежного покрова и степень покрытия местности в баллах.